Flag for Netherlands Weather past 2 weeks in Arnhem, Netherlands

Now
45 °F

Lots of rain. Mostly cloudy.


Feels Like: 39 °F
Forecast: 44 / 52 °F
Wind: 10 mph from West

Location: Deelen

Current Time: Oct 21, 2014 at 9:16:44 PM

Latest Report: Oct 21, 2014 at 8:55 PM


Visibility: N/A

Pressure: 29.62 "Hg

Humidity: 93%

Dew point: 43 °F

Location of ArnhemLocation

Historic Weather in Arnhem — Graph

°F

Arnhem temperature yesterday

Maximum temperature yesterday: 61 °F (at 1:55 PM)
Minimum temperature yesterday: 54 °F (at 10:55 PM)
Average temperature yesterday: 58 °F

Past Weeks' High & Low Weather Summary

 TemperatureHumidityPressure
High72 °F (Oct 18, 3:55 PM)100% (Oct 7, 3:25 AM)30.04 "Hg (Oct 7, 3:25 AM)
Low46 °F (Oct 8, 4:55 AM)63% (Oct 7, 3:55 PM)29.45 "Hg (Oct 7, 9:55 AM)
Average57 °F90%29.77 "Hg
* Reported Oct 6 7:25 PM — Oct 21 7:55 PM, Arnhem, Weather by CustomWeather, © 2014

Note: Actual official high and low records may vary slightly from our data, if they occured in-between our weather recording intervals... More about our weather records

Advertising

Arnhem weather history for previous 24 hours

 ConditionsComfort  
Time TempWeatherWind HumidityBarometerVisibility
7:55 PM
Oct 21
48 °FLight rain. Passing clouds.13 mph87%29.59 "HgN/A
7:25 PM48 °FBroken clouds.12 mph87%29.56 "HgN/A
6:55 PM50 °FLight rain. Broken clouds.15 mph82%29.56 "HgN/A
6:25 PM50 °FPartly sunny.10 mph88%29.53 "HgN/A
5:55 PM50 °FDrizzle. Broken clouds.14 mph88%29.50 "HgN/A
5:25 PM50 °FDrizzle. Broken clouds.8 mph94%29.50 "HgN/A
4:55 PM52 °FBroken clouds.16 mph82%29.50 "HgN/A
4:25 PM52 °FLight rain. Broken clouds.14 mph88%29.47 "HgN/A
3:55 PM54 °FDrizzle. Broken clouds.12 mph94%29.47 "HgN/A
3:25 PM54 °FRain showers. Broken clouds.14 mph100%29.45 "Hg4 mi
2:55 PM54 °FMostly cloudy.15 mph100%29.45 "HgN/A
2:25 PM54 °FSprinkles. Broken clouds.21 mph100%29.45 "Hg6 mi
1:55 PM54 °FRain showers. Broken clouds.20 mph94%29.47 "Hg4 mi
1:25 PM54 °FLight rain. More clouds than sun.20 mph94%29.50 "HgN/A
12:55 PM54 °FDrizzle. Broken clouds.21 mph94%29.50 "HgN/A
12:25 PM54 °FDrizzle. Cloudy.20 mph94%29.53 "Hg4 mi
11:55 AM54 °FDrizzle. Broken clouds.17 mph94%29.56 "Hg4 mi
11:25 AM54 °FSprinkles. More clouds than sun.18 mph94%29.59 "HgN/A
10:55 AM54 °FDrizzle. Overcast.18 mph88%29.62 "HgN/A
10:25 AM54 °FMostly cloudy.16 mph88%29.62 "HgN/A
9:55 AM54 °FDrizzle. Mostly cloudy.16 mph94%29.65 "HgN/A
9:25 AM54 °FMostly cloudy.16 mph88%29.68 "HgN/A
8:55 AM54 °FMostly cloudy.16 mph88%29.68 "HgN/A
8:25 AM54 °FMostly cloudy.16 mph88%29.71 "HgN/A
7:55 AM54 °FMostly cloudy.15 mph88%29.71 "HgN/A
7:25 AM54 °FMostly cloudy.12 mph94%29.71 "HgN/A
6:55 AM54 °FPartly cloudy.13 mph94%29.74 "HgN/A
6:25 AM54 °FPassing clouds.14 mph94%29.74 "HgN/A
5:55 AM54 °FPartly cloudy.13 mph94%29.77 "HgN/A
4:55 AM54 °FPassing clouds.10 mph94%29.80 "HgN/A
4:25 AM54 °FMostly cloudy.12 mph94%29.80 "HgN/A
3:55 AM54 °FLow clouds.13 mph94%29.83 "HgN/A
3:25 AM54 °FMostly cloudy.13 mph94%29.83 "HgN/A
2:55 AM55 °FPartly cloudy.12 mph88%29.83 "HgN/A
2:25 AM54 °FOvercast.12 mph94%29.86 "HgN/A
1:55 AM54 °FOvercast.13 mph94%29.86 "HgN/A
1:25 AM55 °FPassing clouds.13 mph88%29.86 "HgN/A
12:55 AM55 °FOvercast.10 mph88%29.86 "HgN/A
12:25 AM55 °FMostly cloudy.10 mph88%29.86 "HgN/A
11:55 PM
Oct 20
54 °FMostly cloudy.10 mph94%29.89 "HgN/A
11:25 PM54 °FPassing clouds.9 mph94%29.89 "HgN/A
10:55 PM54 °FPassing clouds.9 mph94%29.89 "HgN/A
10:25 PM55 °FCool.10 mph88%29.92 "HgN/A
9:55 PM55 °FOvercast.10 mph88%29.92 "HgN/A
9:25 PM57 °FOvercast.8 mph82%29.92 "HgN/A
Weather by CustomWeather, © 2014

See weather overviewHow to use our weather pages